• In Belarus
  • List of Countries
  • For 7 days
  • Water Temperature
  • Satellite Maps
  • Weather Map
  • Weather Widgets
  • user-avatar
    Login

    Hourly Weather Smarkow

    Today, 22 October, Monday

    Time Temperature Precipitation Wind Pressure Humidity
    00:00 +5°C° 0 mm 0 mps 742 mmHg 85%
    01:00 +4°C° 0 mm 0 mps 742 mmHg 86%
    02:00 +4°C° 0 mm 0 mps 742 mmHg 86%
    03:00 +4°C° 0 mm 0 mps 742 mmHg 87%
    04:00 +4°C° 0 mm 0 mps 742 mmHg 88%
    05:00 +5°C° 0 mm 1 mps 742 mmHg 88%
    06:00 +5°C° 0 mm 1 mps 742 mmHg 88%
    07:00 +5°C° 0 mm 1 mps 742 mmHg 88%
    08:00 +7°C° 0 mm 1 mps 741 mmHg 80%
    09:00 +8°C° 0 mm 1 mps 741 mmHg 72%
    10:00 +9°C° 0 mm 2 mps 741 mmHg 64%
    11:00 +10°C° 0 mm 2 mps 741 mmHg 59%
    12:00 +12°C° 0 mm 2 mps 740 mmHg 55%
    13:00 +12°C° 0 mm 3 mps 740 mmHg 51%
    14:00 +11°C° 0 mm 3 mps 740 mmHg 54%
    15:00 +12°C° 0 mm 2 mps 739 mmHg 57%
    16:00 +10°C° 0 mm 2 mps 739 mmHg 60%
    17:00 +10°C° 0 mm 2 mps 739 mmHg 62%
    18:00 +9°C° 0 mm 3 mps 739 mmHg 64%
    19:00 +9°C° 0 mm 3 mps 739 mmHg 66%
    20:00 +9°C° 0.3 mm 3 mps 739 mmHg 71%
    21:00 +8°C° 0.3 mm 4 mps 739 mmHg 77%
    22:00 +8°C° 0.3 mm 4 mps 739 mmHg 83%
    23:00 +7°C° 0.1 mm 4 mps 739 mmHg 84%

    Tomorrow, 23 October, Tuesday

    Time Temperature Precipitation Wind Pressure Humidity
    00:00 +6°C° 0.1 mm 4 mps 739 mmHg 85%
    01:00 +5°C° 0.1 mm 4 mps 739 mmHg 85%
    02:00 +5°C° 0 mm 4 mps 739 mmHg 86%
    03:00 +4°C° 0 mm 3 mps 738 mmHg 87%
    04:00 +4°C° 0 mm 3 mps 738 mmHg 87%
    05:00 +4°C° 0 mm 4 mps 738 mmHg 86%
    06:00 +4°C° 0 mm 4 mps 737 mmHg 85%
    07:00 +4°C° 0 mm 4 mps 737 mmHg 84%
    08:00 +5°C° 0.1 mm 5 mps 736 mmHg 79%
    09:00 +4°C° 0.1 mm 6 mps 736 mmHg 74%
    10:00 +5°C° 0.1 mm 7 mps 735 mmHg 68%
    11:00 +5°C° 0.7 mm 7 mps 734 mmHg 70%
    12:00 +5°C° 0.7 mm 8 mps 733 mmHg 71%
    13:00 +5°C° 0.7 mm 9 mps 731 mmHg 72%
    14:00 +5°C° 0.8 mm 9 mps 730 mmHg 74%
    15:00 +5°C° 0.8 mm 9 mps 729 mmHg 76%
    16:00 +5°C° 0.8 mm 9 mps 728 mmHg 78%
    17:00 +5°C° 0.6 mm 10 mps 727 mmHg 79%
    18:00 +5°C° 0.6 mm 10 mps 726 mmHg 80%
    19:00 +6°C° 0.6 mm 10 mps 725 mmHg 82%
    20:00 +6°C° 1.3 mm 10 mps 724 mmHg 83%
    21:00 +7°C° 1.3 mm 10 mps 724 mmHg 85%
    22:00 +7°C° 1.3 mm 9 mps 723 mmHg 86%
    23:00 +7°C° 1.9 mm 9 mps 722 mmHg 86%

    Day after tomorrow, 24 October, Wednesday

    Time Temperature Precipitation Wind Pressure Humidity
    00:00 +7°C° 1.9 mm 9 mps 721 mmHg 86%
    01:00 +7°C° 1.9 mm 8 mps 721 mmHg 86%
    02:00 +7°C° 1.6 mm 9 mps 720 mmHg 82%
    03:00 +6°C° 1.6 mm 9 mps 719 mmHg 79%
    04:00 +6°C° 1.6 mm 10 mps 719 mmHg 75%
    05:00 +5°C° 0.2 mm 10 mps 720 mmHg 71%
    06:00 +3°C° 0.2 mm 10 mps 721 mmHg 66%
    07:00 +2°C° 0.2 mm 10 mps 721 mmHg 62%
    08:00 +2°C° 0 mm 11 mps 722 mmHg 57%
    09:00 +3°C° 0 mm 11 mps 723 mmHg 52%
    10:00 +3°C° 0 mm 11 mps 724 mmHg 47%
    11:00 +3°C° 0 mm 11 mps 724 mmHg 47%
    12:00 +3°C° 0 mm 11 mps 725 mmHg 47%
    13:00 +5°C° 0 mm 10 mps 725 mmHg 47%
    14:00 +3°C° 0 mm 10 mps 726 mmHg 47%
    15:00 +3°C° 0 mm 9 mps 726 mmHg 48%
    16:00 +3°C° 0 mm 9 mps 727 mmHg 48%
    17:00 +2°C° 0 mm 8 mps 727 mmHg 50%
    18:00 +2°C° 0 mm 8 mps 728 mmHg 52%
    19:00 +1°C° 0 mm 8 mps 728 mmHg 53%
    20:00 +1°C° 0 mm 8 mps 729 mmHg 56%
    21:00 +2°C° 0 mm 7 mps 729 mmHg 58%
    22:00 +2°C° 0 mm 7 mps 730 mmHg 61%
    23:00 0°C° 0 mm 7 mps 730 mmHg 63%

    25 October, Thursday

    Time Temperature Precipitation Wind Pressure Humidity
    00:00 +1°C° 0 mm 6 mps 730 mmHg 64%
    01:00 +1°C° 0 mm 6 mps 730 mmHg 66%
    02:00 +1°C° 0 mm 5 mps 730 mmHg 70%
    03:00 +1°C° 0 mm 5 mps 730 mmHg 74%
    04:00 0°C° 0 mm 4 mps 730 mmHg 77%
    05:00 +1°C° 0.2 mm 5 mps 729 mmHg 78%
    06:00 +2°C° 0.2 mm 5 mps 728 mmHg 79%
    07:00 +2°C° 0.2 mm 5 mps 728 mmHg 80%
    08:00 +4°C° 0.8 mm 6 mps 727 mmHg 81%
    09:00 +5°C° 0.8 mm 7 mps 726 mmHg 83%
    10:00 +7°C° 0.8 mm 8 mps 726 mmHg 84%
    11:00 +7°C° 0.2 mm 9 mps 725 mmHg 83%
    12:00 +7°C° 0.2 mm 9 mps 725 mmHg 81%
    13:00 +7°C° 0.2 mm 10 mps 725 mmHg 80%
    14:00 +7°C° 0.2 mm 9 mps 725 mmHg 78%
    15:00 +7°C° 0.2 mm 9 mps 725 mmHg 76%
    16:00 +7°C° 0.2 mm 9 mps 726 mmHg 74%
    17:00 +6°C° 0 mm 8 mps 727 mmHg 75%
    18:00 +6°C° 0 mm 7 mps 727 mmHg 76%
    19:00 +5°C° 0 mm 7 mps 728 mmHg 78%
    20:00 +5°C° 0 mm 6 mps 728 mmHg 79%
    21:00 +4°C° 0 mm 6 mps 728 mmHg 81%
    22:00 +4°C° 0 mm 6 mps 729 mmHg 83%
    23:00 +4°C° 0 mm 6 mps 729 mmHg 83%

    26 October, Friday

    Time Temperature Precipitation Wind Pressure Humidity
    00:00 +5°C° 0 mm 5 mps 729 mmHg 84%
    01:00 +5°C° 0 mm 5 mps 729 mmHg 84%
    02:00 +5°C° 0 mm 5 mps 729 mmHg 84%
    03:00 +5°C° 0 mm 5 mps 730 mmHg 85%
    04:00 +4°C° 0 mm 4 mps 730 mmHg 85%
    05:00 +4°C° 0 mm 4 mps 730 mmHg 86%
    06:00 +4°C° 0 mm 4 mps 730 mmHg 86%
    07:00 +4°C° 0 mm 3 mps 730 mmHg 86%
    08:00 +5°C° 0 mm 4 mps 730 mmHg 82%
    09:00 +6°C° 0 mm 4 mps 730 mmHg 77%
    10:00 +7°C° 0 mm 4 mps 730 mmHg 73%
    11:00 +8°C° 0 mm 4 mps 730 mmHg 70%
    12:00 +8°C° 0 mm 4 mps 730 mmHg 66%
    13:00 +10°C° 0 mm 4 mps 730 mmHg 62%
    14:00 +9°C° 0 mm 3 mps 729 mmHg 66%
    15:00 +9°C° 0 mm 3 mps 729 mmHg 70%
    16:00 +8°C° 0 mm 2 mps 729 mmHg 74%
    17:00 +8°C° 0 mm 2 mps 728 mmHg 77%
    18:00 +7°C° 0 mm 2 mps 728 mmHg 80%
    19:00 +7°C° 0 mm 3 mps 728 mmHg 84%
    20:00 +7°C° 0 mm 3 mps 728 mmHg 84%
    21:00 +7°C° 0 mm 3 mps 727 mmHg 84%
    22:00 +7°C° 0 mm 3 mps 727 mmHg 85%
    23:00 +7°C° 0 mm 3 mps 727 mmHg 84%

    27 October, Saturday

    Time Temperature Precipitation Wind Pressure Humidity
    00:00 +7°C° 0 mm 3 mps 726 mmHg 84%
    01:00 +7°C° 0 mm 3 mps 726 mmHg 83%
    02:00 +7°C° 0 mm 3 mps 726 mmHg 84%
    03:00 +7°C° 0 mm 3 mps 725 mmHg 84%
    04:00 +7°C° 0 mm 3 mps 725 mmHg 85%
    05:00 +7°C° 0 mm 3 mps 725 mmHg 87%
    06:00 +7°C° 0 mm 2 mps 725 mmHg 89%
    07:00 +6°C° 0 mm 2 mps 725 mmHg 91%
    08:00 +8°C° 0 mm 2 mps 725 mmHg 86%
    09:00 +10°C° 0 mm 2 mps 724 mmHg 80%
    10:00 +12°C° 0 mm 2 mps 724 mmHg 75%
    11:00 +13°C° 0 mm 2 mps 724 mmHg 73%
    12:00 +14°C° 0 mm 2 mps 723 mmHg 70%
    13:00 +14°C° 0 mm 3 mps 723 mmHg 68%
    14:00 +13°C° 0.4 mm 3 mps 722 mmHg 73%
    15:00 +12°C° 0.4 mm 3 mps 722 mmHg 78%
    16:00 +12°C° 0.4 mm 3 mps 721 mmHg 83%
    17:00 +12°C° 0.3 mm 4 mps 721 mmHg 81%
    18:00 +13°C° 0.3 mm 4 mps 721 mmHg 80%
    19:00 +13°C° 0.3 mm 5 mps 720 mmHg 78%
    20:00 +13°C° 0 mm 5 mps 720 mmHg 79%
    21:00 +13°C° 0 mm 4 mps 720 mmHg 79%
    22:00 +12°C° 0 mm 4 mps 719 mmHg 80%
    23:00 +13°C° 0.3 mm 4 mps 719 mmHg 79%

    28 October, Sunday

    Time Temperature Precipitation Wind Pressure Humidity
    00:00 +13°C° 0.3 mm 5 mps 719 mmHg 78%
    01:00 +13°C° 0.3 mm 5 mps 719 mmHg 77%
    02:00 +13°C° 0.2 mm 5 mps 719 mmHg 80%
    03:00 +12°C° 0.2 mm 4 mps 719 mmHg 82%
    04:00 +12°C° 0.2 mm 4 mps 719 mmHg 84%
    05:00 +11°C° 0.2 mm 4 mps 720 mmHg 85%
    06:00 +10°C° 0.2 mm 4 mps 720 mmHg 87%
    07:00 +8°C° 0.2 mm 4 mps 721 mmHg 88%
    08:00 +8°C° 0 mm 5 mps 722 mmHg 85%
    09:00 +8°C° 0 mm 5 mps 724 mmHg 82%
    10:00 +7°C° 0 mm 5 mps 725 mmHg 80%
    11:00 +7°C° 0 mm 5 mps 726 mmHg 78%
    12:00 +7°C° 0 mm 4 mps 726 mmHg 75%
    13:00 +7°C° 0 mm 4 mps 727 mmHg 73%
    14:00 +8°C° 0 mm 3 mps 728 mmHg 74%
    15:00 +8°C° 0 mm 3 mps 728 mmHg 75%
    16:00 +8°C° 0 mm 2 mps 729 mmHg 75%
    17:00 +7°C° 0 mm 2 mps 730 mmHg 77%
    18:00 +7°C° 0 mm 1 mps 730 mmHg 79%
    19:00 +7°C° 0 mm 1 mps 731 mmHg 82%
    20:00 +7°C° 0 mm 1 mps 731 mmHg 82%
    21:00 +7°C° 0 mm 1 mps 732 mmHg 82%
    22:00 +7°C° 0 mm 1 mps 732 mmHg 82%
    23:00 +6°C° 0 mm 1 mps 732 mmHg 83%
    Show more